• En España
  • Lista de países
  • Para 7 días
  • Temperatura del agua
  • Mapa Satelital
  • El tiempo en el mapa
  • Informadores
  • user-avatar
    Iniciar sesión

    Tiempo cada hora Kommuna

    Hoy, 25 Mayo, Viernes

    Tiempo Temperatura Precipitaciones Viento Presión Humedad
    00:00 +8°C° 0 mm 2 mps 757 mmHg 68%
    01:00 +8°C° 0 mm 2 mps 757 mmHg 68%
    02:00 +7°C° 0 mm 2 mps 757 mmHg 71%
    03:00 +8°C° 0 mm 2 mps 757 mmHg 68%
    04:00 +8°C° 0 mm 2 mps 758 mmHg 65%
    05:00 +9°C° 0 mm 2 mps 758 mmHg 63%
    06:00 +11°C° 0 mm 3 mps 758 mmHg 56%
    07:00 +12°C° 0 mm 3 mps 759 mmHg 49%
    08:00 +14°C° 0 mm 3 mps 759 mmHg 43%
    09:00 +16°C° 0 mm 3 mps 759 mmHg 40%
    10:00 +17°C° 0 mm 3 mps 759 mmHg 38%
    11:00 +18°C° 0 mm 3 mps 759 mmHg 35%
    12:00 +19°C° 0 mm 3 mps 759 mmHg 35%
    13:00 +19°C° 0 mm 2 mps 759 mmHg 34%
    14:00 +20°C° 0 mm 2 mps 759 mmHg 34%
    15:00 +20°C° 0 mm 2 mps 759 mmHg 35%
    16:00 +20°C° 0 mm 2 mps 759 mmHg 37%
    17:00 +21°C° 0 mm 1 mps 759 mmHg 38%
    18:00 +18°C° 0 mm 1 mps 759 mmHg 46%
    19:00 +15°C° 0 mm 1 mps 759 mmHg 54%
    20:00 +13°C° 0 mm 1 mps 759 mmHg 61%
    21:00 +12°C° 0 mm 1 mps 759 mmHg 64%
    22:00 +11°C° 0 mm 1 mps 760 mmHg 66%
    23:00 +10°C° 0 mm 1 mps 760 mmHg 69%

    Mañana, 26 Mayo, Sábado

    Tiempo Temperatura Precipitaciones Viento Presión Humedad
    00:00 +10°C° 0 mm 1 mps 760 mmHg 70%
    01:00 +9°C° 0 mm 2 mps 761 mmHg 71%
    02:00 +8°C° 0 mm 2 mps 761 mmHg 73%
    03:00 +9°C° 0 mm 2 mps 761 mmHg 71%
    04:00 +10°C° 0 mm 2 mps 762 mmHg 70%
    05:00 +10°C° 0 mm 2 mps 762 mmHg 69%
    06:00 +13°C° 0 mm 2 mps 762 mmHg 63%
    07:00 +16°C° 0 mm 2 mps 762 mmHg 57%
    08:00 +18°C° 0 mm 3 mps 762 mmHg 51%
    09:00 +19°C° 0 mm 3 mps 762 mmHg 47%
    10:00 +21°C° 0 mm 3 mps 762 mmHg 43%
    11:00 +22°C° 0 mm 3 mps 762 mmHg 39%
    12:00 +22°C° 0 mm 3 mps 761 mmHg 39%
    13:00 +24°C° 0 mm 3 mps 761 mmHg 38%
    14:00 +24°C° 0 mm 3 mps 761 mmHg 38%
    15:00 +24°C° 0 mm 3 mps 760 mmHg 40%
    16:00 +24°C° 0 mm 3 mps 760 mmHg 42%
    17:00 +22°C° 0 mm 3 mps 759 mmHg 45%
    18:00 +20°C° 0 mm 3 mps 759 mmHg 53%
    19:00 +18°C° 0 mm 2 mps 759 mmHg 61%
    20:00 +16°C° 0 mm 2 mps 759 mmHg 69%
    21:00 +15°C° 0 mm 2 mps 759 mmHg 71%
    22:00 +14°C° 0 mm 2 mps 759 mmHg 72%
    23:00 +14°C° 0 mm 2 mps 759 mmHg 74%

    Pasado mañana, 27 Mayo, Domingo

    Tiempo Temperatura Precipitaciones Viento Presión Humedad
    00:00 +13°C° 0 mm 2 mps 759 mmHg 74%
    01:00 +12°C° 0 mm 3 mps 759 mmHg 74%
    02:00 +12°C° 0 mm 3 mps 759 mmHg 74%
    03:00 +12°C° 0 mm 3 mps 759 mmHg 73%
    04:00 +13°C° 0 mm 3 mps 758 mmHg 72%
    05:00 +13°C° 0 mm 3 mps 758 mmHg 71%
    06:00 +15°C° 0 mm 4 mps 758 mmHg 67%
    07:00 +18°C° 0 mm 4 mps 757 mmHg 62%
    08:00 +20°C° 0 mm 4 mps 757 mmHg 57%
    09:00 +21°C° 0 mm 5 mps 757 mmHg 53%
    10:00 +22°C° 0 mm 5 mps 756 mmHg 49%
    11:00 +25°C° 0 mm 5 mps 756 mmHg 45%
    12:00 +23°C° 0 mm 5 mps 756 mmHg 47%
    13:00 +23°C° 0 mm 4 mps 755 mmHg 48%
    14:00 +23°C° 0 mm 4 mps 755 mmHg 50%
    15:00 +23°C° 0 mm 4 mps 755 mmHg 47%
    16:00 +22°C° 0 mm 4 mps 755 mmHg 44%
    17:00 +22°C° 0 mm 4 mps 755 mmHg 41%
    18:00 +20°C° 0 mm 4 mps 755 mmHg 45%
    19:00 +18°C° 0 mm 3 mps 756 mmHg 49%
    20:00 +14°C° 0 mm 3 mps 756 mmHg 53%
    21:00 +14°C° 0 mm 2 mps 757 mmHg 55%
    22:00 +12°C° 0 mm 2 mps 758 mmHg 56%
    23:00 +10°C° 0 mm 2 mps 758 mmHg 57%

    28 Mayo, Lunes

    Tiempo Temperatura Precipitaciones Viento Presión Humedad
    00:00 +9°C° 0 mm 2 mps 759 mmHg 57%
    01:00 +8°C° 0 mm 2 mps 759 mmHg 57%
    02:00 +7°C° 0 mm 2 mps 760 mmHg 57%
    03:00 +8°C° 0 mm 2 mps 760 mmHg 57%
    04:00 +8°C° 0 mm 2 mps 761 mmHg 57%
    05:00 +8°C° 0 mm 2 mps 761 mmHg 57%
    06:00 +10°C° 0 mm 2 mps 761 mmHg 50%
    07:00 +13°C° 0 mm 2 mps 761 mmHg 44%
    08:00 +15°C° 0 mm 2 mps 762 mmHg 38%
    09:00 +16°C° 0 mm 2 mps 762 mmHg 35%
    10:00 +17°C° 0 mm 2 mps 762 mmHg 33%
    11:00 +18°C° 0 mm 3 mps 761 mmHg 30%
    12:00 +19°C° 0 mm 2 mps 761 mmHg 30%
    13:00 +19°C° 0 mm 2 mps 761 mmHg 29%
    14:00 +20°C° 0 mm 2 mps 761 mmHg 29%
    15:00 +20°C° 0 mm 2 mps 760 mmHg 31%
    16:00 +20°C° 0 mm 2 mps 760 mmHg 34%
    17:00 +20°C° 0 mm 2 mps 760 mmHg 36%
    18:00 +18°C° 0 mm 2 mps 760 mmHg 43%
    19:00 +16°C° 0 mm 2 mps 760 mmHg 51%
    20:00 +14°C° 0 mm 1 mps 760 mmHg 58%
    21:00 +13°C° 0 mm 1 mps 760 mmHg 59%
    22:00 +13°C° 0 mm 2 mps 760 mmHg 60%
    23:00 +12°C° 0 mm 2 mps 760 mmHg 61%

    29 Mayo, Martes

    Tiempo Temperatura Precipitaciones Viento Presión Humedad
    00:00 +10°C° 0 mm 2 mps 760 mmHg 62%
    01:00 +10°C° 0 mm 2 mps 760 mmHg 63%
    02:00 +10°C° 0 mm 2 mps 761 mmHg 64%
    03:00 +10°C° 0 mm 2 mps 761 mmHg 63%
    04:00 +12°C° 0 mm 2 mps 761 mmHg 62%
    05:00 +13°C° 0 mm 2 mps 761 mmHg 61%
    06:00 +15°C° 0 mm 2 mps 760 mmHg 56%
    07:00 +17°C° 0 mm 3 mps 760 mmHg 50%
    08:00 +19°C° 0 mm 3 mps 760 mmHg 45%
    09:00 +20°C° 0 mm 3 mps 760 mmHg 42%
    10:00 +22°C° 0 mm 3 mps 759 mmHg 38%
    11:00 +24°C° 0 mm 3 mps 759 mmHg 35%
    12:00 +25°C° 0 mm 3 mps 759 mmHg 35%
    13:00 +26°C° 0 mm 4 mps 758 mmHg 35%
    14:00 +26°C° 0 mm 4 mps 758 mmHg 34%
    15:00 +26°C° 0 mm 3 mps 757 mmHg 37%
    16:00 +25°C° 0 mm 3 mps 757 mmHg 40%
    17:00 +25°C° 0 mm 3 mps 756 mmHg 43%
    18:00 +22°C° 0 mm 3 mps 756 mmHg 50%
    19:00 +20°C° 0 mm 3 mps 755 mmHg 57%
    20:00 +18°C° 0 mm 2 mps 755 mmHg 65%
    21:00 +17°C° 0 mm 3 mps 755 mmHg 67%
    22:00 +16°C° 0 mm 3 mps 754 mmHg 69%
    23:00 +14°C° 0 mm 3 mps 754 mmHg 71%

    30 Mayo, Miércoles

    Tiempo Temperatura Precipitaciones Viento Presión Humedad
    00:00 +14°C° 0 mm 3 mps 754 mmHg 72%
    01:00 +13°C° 0 mm 3 mps 753 mmHg 74%
    02:00 +13°C° 0 mm 3 mps 753 mmHg 75%
    03:00 +14°C° 0 mm 3 mps 752 mmHg 72%
    04:00 +14°C° 0 mm 4 mps 752 mmHg 70%
    05:00 +15°C° 0 mm 4 mps 752 mmHg 67%
    06:00 +17°C° 0 mm 4 mps 751 mmHg 62%
    07:00 +19°C° 0 mm 5 mps 751 mmHg 58%
    08:00 +21°C° 0 mm 5 mps 750 mmHg 53%
    09:00 +23°C° 0 mm 6 mps 750 mmHg 49%
    10:00 +24°C° 0 mm 6 mps 749 mmHg 45%
    11:00 +27°C° 0 mm 7 mps 749 mmHg 41%
    12:00 +27°C° 0 mm 7 mps 748 mmHg 40%
    13:00 +27°C° 0 mm 7 mps 748 mmHg 39%
    14:00 +28°C° 0 mm 7 mps 747 mmHg 38%
    15:00 +27°C° 0 mm 6 mps 747 mmHg 40%
    16:00 +27°C° 0 mm 5 mps 747 mmHg 42%
    17:00 +26°C° 0 mm 5 mps 746 mmHg 45%
    18:00 +23°C° 0 mm 4 mps 747 mmHg 48%
    19:00 +21°C° 0 mm 4 mps 747 mmHg 52%
    20:00 +19°C° 0 mm 3 mps 747 mmHg 56%
    21:00 +17°C° 0 mm 3 mps 747 mmHg 55%
    22:00 +14°C° 0 mm 4 mps 748 mmHg 54%
    23:00 +13°C° 0 mm 4 mps 748 mmHg 53%
    Mostrar más